When you browse on this site, cookies collect data to enhance your experience and personalize the content and advertising you see.
Visit our Privacy Policy to learn more. By continuing to use the site, you agree to this use of cookies and data.
  • en France
  • Liste des pays
  • À 7 jours
  • Température de l'eau
  • Carte satellitaire
  • Carte météo
  • Widgets météo
  • user-avatar
    Se connecter

    Météo par heure à Viedma

    Ce jour, 19 Janvier, Samedi

    Heure Température Précipitation Vent Pression Humidité
    00:00 +24°C° 0 mm 6 m/s 760 mmHg 22%
    01:00 +24°C° 0 mm 6 m/s 760 mmHg 22%
    02:00 +23°C° 0 mm 6 m/s 760 mmHg 23%
    03:00 +23°C° 0 mm 6 m/s 760 mmHg 23%
    04:00 +23°C° 0 mm 6 m/s 760 mmHg 24%
    05:00 +22°C° 0 mm 6 m/s 760 mmHg 25%
    06:00 +24°C° 0 mm 6 m/s 760 mmHg 23%
    07:00 +27°C° 0 mm 7 m/s 760 mmHg 22%
    08:00 +29°C° 0 mm 8 m/s 760 mmHg 21%
    09:00 +31°C° 0 mm 8 m/s 760 mmHg 19%
    10:00 +33°C° 0 mm 8 m/s 760 mmHg 16%
    11:00 +34°C° 0 mm 8 m/s 760 mmHg 14%
    12:00 +35°C° 0 mm 8 m/s 759 mmHg 13%
    13:00 +37°C° 0 mm 8 m/s 759 mmHg 12%
    14:00 +38°C° 0 mm 8 m/s 758 mmHg 11%
    15:00 +38°C° 0 mm 8 m/s 757 mmHg 11%
    16:00 +38°C° 0 mm 8 m/s 757 mmHg 10%
    17:00 +38°C° 0 mm 8 m/s 756 mmHg 10%
    18:00 +35°C° 0 mm 8 m/s 756 mmHg 14%
    19:00 +32°C° 0 mm 8 m/s 756 mmHg 17%
    20:00 +29°C° 0 mm 8 m/s 756 mmHg 21%
    21:00 +28°C° 0 mm 8 m/s 756 mmHg 26%
    22:00 +27°C° 0 mm 7 m/s 756 mmHg 32%
    23:00 +27°C° 0 mm 7 m/s 756 mmHg 37%

    Demain, 20 Janvier, Dimanche

    Heure Température Précipitation Vent Pression Humidité
    00:00 +27°C° 0 mm 8 m/s 755 mmHg 34%
    01:00 +27°C° 0 mm 8 m/s 755 mmHg 30%
    02:00 +27°C° 0 mm 9 m/s 755 mmHg 27%
    03:00 +27°C° 0 mm 9 m/s 754 mmHg 30%
    04:00 +26°C° 0 mm 9 m/s 754 mmHg 33%
    05:00 +26°C° 0 mm 9 m/s 754 mmHg 36%
    06:00 +27°C° 0 mm 10 m/s 754 mmHg 34%
    07:00 +28°C° 0 mm 10 m/s 754 mmHg 32%
    08:00 +29°C° 0 mm 11 m/s 754 mmHg 30%
    09:00 +32°C° 0 mm 10 m/s 754 mmHg 28%
    10:00 +33°C° 0 mm 10 m/s 753 mmHg 25%
    11:00 +36°C° 0 mm 10 m/s 753 mmHg 23%
    12:00 +37°C° 0 mm 10 m/s 752 mmHg 21%
    13:00 +39°C° 0 mm 10 m/s 751 mmHg 20%
    14:00 +40°C° 0 mm 10 m/s 750 mmHg 18%
    15:00 +40°C° 0 mm 10 m/s 749 mmHg 18%
    16:00 +42°C° 0 mm 10 m/s 748 mmHg 18%
    17:00 +42°C° 0 mm 10 m/s 747 mmHg 18%
    18:00 +40°C° 0.5 mm 10 m/s 747 mmHg 20%
    19:00 +38°C° 0.5 mm 9 m/s 747 mmHg 22%
    20:00 +37°C° 0.5 mm 8 m/s 747 mmHg 25%
    21:00 +35°C° 0 mm 8 m/s 747 mmHg 24%
    22:00 +34°C° 0 mm 7 m/s 748 mmHg 24%
    23:00 +33°C° 0 mm 7 m/s 748 mmHg 24%

    Après-demain, 21 Janvier, Lundi

    Heure Température Précipitation Vent Pression Humidité
    00:00 +30°C° 0 mm 7 m/s 749 mmHg 30%
    01:00 +28°C° 0 mm 6 m/s 749 mmHg 36%
    02:00 +26°C° 0 mm 6 m/s 750 mmHg 42%
    03:00 +24°C° 0 mm 6 m/s 751 mmHg 42%
    04:00 +23°C° 0 mm 5 m/s 752 mmHg 42%
    05:00 +22°C° 0 mm 5 m/s 753 mmHg 43%
    06:00 +22°C° 0 mm 6 m/s 753 mmHg 36%
    07:00 +22°C° 0 mm 7 m/s 754 mmHg 30%
    08:00 +22°C° 0 mm 8 m/s 755 mmHg 23%
    09:00 +23°C° 0 mm 8 m/s 755 mmHg 22%
    10:00 +24°C° 0 mm 7 m/s 755 mmHg 20%
    11:00 +24°C° 0 mm 6 m/s 755 mmHg 18%
    12:00 +26°C° 0 mm 6 m/s 755 mmHg 17%
    13:00 +26°C° 0 mm 5 m/s 755 mmHg 16%
    14:00 +27°C° 0 mm 4 m/s 754 mmHg 14%
    15:00 +28°C° 0 mm 3 m/s 754 mmHg 14%
    16:00 +28°C° 0 mm 3 m/s 753 mmHg 13%
    17:00 +29°C° 0 mm 2 m/s 752 mmHg 13%
    18:00 +26°C° 0 mm 4 m/s 752 mmHg 20%
    19:00 +23°C° 0 mm 6 m/s 751 mmHg 28%
    20:00 +20°C° 0 mm 8 m/s 751 mmHg 35%
    21:00 +21°C° 0 mm 9 m/s 751 mmHg 38%
    22:00 +21°C° 0 mm 9 m/s 750 mmHg 40%
    23:00 +21°C° 0 mm 10 m/s 750 mmHg 43%

    22 Janvier, Mardi

    Heure Température Précipitation Vent Pression Humidité
    00:00 +21°C° 0 mm 9 m/s 749 mmHg 44%
    01:00 +21°C° 0 mm 9 m/s 749 mmHg 44%
    02:00 +21°C° 0 mm 8 m/s 748 mmHg 45%
    03:00 +22°C° 0 mm 7 m/s 748 mmHg 42%
    04:00 +22°C° 0 mm 7 m/s 748 mmHg 39%
    05:00 +22°C° 0 mm 6 m/s 748 mmHg 36%
    06:00 +23°C° 0 mm 8 m/s 749 mmHg 35%
    07:00 +23°C° 0 mm 9 m/s 750 mmHg 34%
    08:00 +24°C° 0 mm 11 m/s 750 mmHg 32%
    09:00 +26°C° 0 mm 10 m/s 751 mmHg 30%
    10:00 +26°C° 0 mm 9 m/s 752 mmHg 27%
    11:00 +27°C° 0 mm 9 m/s 752 mmHg 25%
    12:00 +27°C° 0 mm 8 m/s 753 mmHg 25%
    13:00 +27°C° 0 mm 7 m/s 753 mmHg 25%
    14:00 +27°C° 0 mm 6 m/s 753 mmHg 25%
    15:00 +27°C° 0 mm 6 m/s 753 mmHg 25%
    16:00 +26°C° 0 mm 6 m/s 753 mmHg 25%
    17:00 +26°C° 0 mm 5 m/s 753 mmHg 26%
    18:00 +23°C° 0 mm 5 m/s 753 mmHg 29%
    19:00 +22°C° 0 mm 6 m/s 753 mmHg 32%
    20:00 +20°C° 0 mm 6 m/s 754 mmHg 35%
    21:00 +20°C° 0 mm 5 m/s 754 mmHg 37%
    22:00 +19°C° 0 mm 5 m/s 755 mmHg 39%
    23:00 +19°C° 0 mm 4 m/s 756 mmHg 41%

    23 Janvier, Mercredi

    Heure Température Précipitation Vent Pression Humidité
    00:00 +18°C° 0 mm 4 m/s 756 mmHg 44%
    01:00 +18°C° 0 mm 3 m/s 756 mmHg 47%
    02:00 +18°C° 0 mm 3 m/s 756 mmHg 50%
    03:00 +17°C° 0 mm 3 m/s 757 mmHg 54%
    04:00 +17°C° 0 mm 2 m/s 757 mmHg 58%
    05:00 +17°C° 0 mm 2 m/s 757 mmHg 61%
    06:00 +19°C° 0 mm 2 m/s 757 mmHg 56%
    07:00 +20°C° 0 mm 3 m/s 758 mmHg 50%
    08:00 +22°C° 0 mm 3 m/s 758 mmHg 45%
    09:00 +25°C° 0 mm 4 m/s 758 mmHg 38%
    10:00 +26°C° 0 mm 4 m/s 758 mmHg 31%
    11:00 +28°C° 0 mm 4 m/s 758 mmHg 25%
    12:00 +28°C° 0 mm 4 m/s 757 mmHg 25%
    13:00 +29°C° 0 mm 5 m/s 757 mmHg 25%
    14:00 +30°C° 0 mm 5 m/s 757 mmHg 24%
    15:00 +29°C° 0 mm 6 m/s 756 mmHg 27%
    16:00 +29°C° 0 mm 7 m/s 756 mmHg 30%
    17:00 +28°C° 0 mm 8 m/s 755 mmHg 33%
    18:00 +26°C° 0 mm 8 m/s 755 mmHg 39%
    19:00 +23°C° 0 mm 7 m/s 755 mmHg 45%
    20:00 +21°C° 0 mm 7 m/s 755 mmHg 51%
    21:00 +21°C° 0 mm 7 m/s 755 mmHg 54%
    22:00 +21°C° 0 mm 8 m/s 754 mmHg 58%
    23:00 +21°C° 0 mm 8 m/s 754 mmHg 62%

    24 Janvier, Jeudi

    Heure Température Précipitation Vent Pression Humidité
    00:00 +20°C° 0 mm 7 m/s 754 mmHg 63%
    01:00 +20°C° 0 mm 7 m/s 753 mmHg 65%
    02:00 +20°C° 0 mm 7 m/s 753 mmHg 67%
    03:00 +20°C° 0 mm 6 m/s 752 mmHg 65%
    04:00 +20°C° 0 mm 6 m/s 751 mmHg 64%
    05:00 +20°C° 0 mm 5 m/s 751 mmHg 62%
    06:00 +22°C° 0 mm 6 m/s 751 mmHg 51%
    07:00 +26°C° 0 mm 6 m/s 750 mmHg 39%
    08:00 +29°C° 0 mm 7 m/s 750 mmHg 28%
    09:00 +32°C° 0 mm 8 m/s 749 mmHg 32%
    10:00 +34°C° 0 mm 9 m/s 749 mmHg 37%
    11:00 +38°C° 0 mm 10 m/s 748 mmHg 41%
    12:00 +39°C° 0.3 mm 10 m/s 747 mmHg 37%
    13:00 +40°C° 0.3 mm 10 m/s 746 mmHg 33%
    14:00 +42°C° 0.3 mm 11 m/s 745 mmHg 30%
    15:00 +39°C° 11.9 mm 9 m/s 745 mmHg 34%
    16:00 +38°C° 11.9 mm 7 m/s 744 mmHg 38%
    17:00 +35°C° 11.9 mm 5 m/s 744 mmHg 42%
    18:00 +33°C° 0 mm 4 m/s 744 mmHg 42%
    19:00 +30°C° 0 mm 3 m/s 744 mmHg 43%
    20:00 +28°C° 0 mm 2 m/s 745 mmHg 44%
    21:00 +28°C° 0 mm 3 m/s 745 mmHg 40%
    22:00 +28°C° 0 mm 4 m/s 746 mmHg 37%
    23:00 +27°C° 0 mm 5 m/s 747 mmHg 34%
    Voir plus